Location: Arthez
(43.0833°N, 0.2500°W)
Time: 23:19:41
(UTC+00:00)

deb Kosmos-970 - Pass Details

Date: 21 August 2022
Orbit: 900 x 1112 km, 65.8° (Epoch: 28 September)

Event Time Altitude Azimuth Distance (km) Brightness Sun altitude
Rises 00:00:57 0° 325° (NW) 3,937 ? -34.7°
Reaches altitude 10° 00:03:40 10° 323° (NW) 2,963 ? -34.7°
Enters shadow 00:08:52 50° 304° (WNW) 1,347 ? -34.7°
